Tracking 29967 objects as of 5-Dec-2024
HD Live streaming from Space Station
objects crossing your sky now

IRIDIUM 33 DEB

Track IRIDIUM 33 DEB now!
10-day predictions


NORAD ID: 33960
Int'l Code: 1997-051BV
Perigee: 666.5 km
Apogee: 671.5 km
Inclination: 86.3 °
Period: 98.0 minutes
Semi major axis: 7040 km
RCS: 0.042 m2 (small)
Launch date: September 14, 1997
Source: United States (US)
Launch site: TYURATAM MISSILE AND SPACE COMPLEX (TTMTR)

Note: This is SATELLITE DEBRIS
Your satellite tracking list
Your tracking list is empty




NASA's NSSDC Master Catalog

Two Line Element Set (TLE):
1 33960U 97051BV  24340.10176103  .00037092  00000-0  61915-2 0  9990
2 33960  86.2648 102.8267 0003529 294.4463 238.9517 14.69744822833796
Source of the keplerian elements: AFSPC